Stündliche Wetter Kyzylsu

Heute, 8 Mai, Samstag

Zeit Temperatur Niederschläge Wind Luftdruck Luftfeuchtigkeit
00:00 +19°C° 0 mm 2 m/S 721 mmHg 60%
01:00 +19°C° 0 mm 2 m/S 721 mmHg 61%
02:00 +18°C° 0 mm 2 m/S 721 mmHg 61%
03:00 +18°C° 0 mm 2 m/S 721 mmHg 61%
04:00 +18°C° 0 mm 2 m/S 721 mmHg 60%
05:00 +18°C° 0 mm 2 m/S 721 mmHg 60%
06:00 +20°C° 0 mm 2 m/S 721 mmHg 58%
07:00 +23°C° 0 mm 2 m/S 722 mmHg 56%
08:00 +24°C° 0 mm 2 m/S 722 mmHg 54%
09:00 +26°C° 0 mm 1 m/S 722 mmHg 49%
10:00 +27°C° 0 mm 1 m/S 722 mmHg 45%
11:00 +27°C° 0 mm 0 m/S 722 mmHg 40%
12:00 +29°C° 0 mm 1 m/S 722 mmHg 38%
13:00 +30°C° 0 mm 1 m/S 722 mmHg 36%
14:00 +30°C° 0 mm 1 m/S 722 mmHg 34%
15:00 +30°C° 0 mm 1 m/S 721 mmHg 35%
16:00 +30°C° 0 mm 1 m/S 721 mmHg 35%
17:00 +30°C° 0 mm 1 m/S 721 mmHg 36%
18:00 +27°C° 0 mm 2 m/S 721 mmHg 47%
19:00 +24°C° 0 mm 2 m/S 721 mmHg 58%
20:00 +19°C° 0 mm 3 m/S 720 mmHg 70%
21:00 +19°C° 0 mm 2 m/S 720 mmHg 68%
22:00 +19°C° 0 mm 2 m/S 720 mmHg 67%
23:00 +20°C° 0 mm 1 m/S 720 mmHg 66%

Morgen, 9 Mai, Sonntag

Zeit Temperatur Niederschläge Wind Luftdruck Luftfeuchtigkeit
00:00 +19°C° 0 mm 2 m/S 719 mmHg 64%
01:00 +19°C° 0 mm 2 m/S 719 mmHg 61%
02:00 +19°C° 0 mm 2 m/S 718 mmHg 58%
03:00 +19°C° 0 mm 2 m/S 718 mmHg 57%
04:00 +19°C° 0 mm 2 m/S 718 mmHg 56%
05:00 +19°C° 0 mm 2 m/S 718 mmHg 55%
06:00 +19°C° 0.1 mm 2 m/S 719 mmHg 58%
07:00 +20°C° 0.1 mm 3 m/S 719 mmHg 62%
08:00 +20°C° 0.1 mm 3 m/S 720 mmHg 66%
09:00 +20°C° 0.3 mm 3 m/S 720 mmHg 68%
10:00 +19°C° 0.3 mm 2 m/S 721 mmHg 71%
11:00 +19°C° 0.3 mm 2 m/S 721 mmHg 73%
12:00 +20°C° 0.1 mm 2 m/S 721 mmHg 70%
13:00 +21°C° 0.1 mm 2 m/S 721 mmHg 67%
14:00 +23°C° 0.1 mm 2 m/S 721 mmHg 64%
15:00 +24°C° 0 mm 2 m/S 721 mmHg 62%
16:00 +24°C° 0 mm 2 m/S 721 mmHg 60%
17:00 +24°C° 0 mm 2 m/S 721 mmHg 58%
18:00 +23°C° 0 mm 2 m/S 721 mmHg 62%
19:00 +21°C° 0 mm 2 m/S 721 mmHg 65%
20:00 +19°C° 0 mm 2 m/S 721 mmHg 69%
21:00 +20°C° 0 mm 1 m/S 721 mmHg 71%
22:00 +20°C° 0 mm 1 m/S 720 mmHg 72%
23:00 +19°C° 0 mm 1 m/S 720 mmHg 74%

übermorgen, 10 Mai, Montag

Zeit Temperatur Niederschläge Wind Luftdruck Luftfeuchtigkeit
00:00 +18°C° 0 mm 1 m/S 720 mmHg 76%
01:00 +18°C° 0 mm 1 m/S 720 mmHg 78%
02:00 +16°C° 0 mm 1 m/S 719 mmHg 79%
03:00 +16°C° 0 mm 2 m/S 719 mmHg 80%
04:00 +15°C° 0 mm 2 m/S 719 mmHg 80%
05:00 +15°C° 0 mm 2 m/S 719 mmHg 80%
06:00 +16°C° 0 mm 2 m/S 719 mmHg 74%
07:00 +18°C° 0 mm 2 m/S 719 mmHg 68%
08:00 +20°C° 0 mm 2 m/S 720 mmHg 61%
09:00 +21°C° 0 mm 3 m/S 720 mmHg 55%
10:00 +22°C° 0 mm 3 m/S 720 mmHg 49%
11:00 +25°C° 0 mm 3 m/S 720 mmHg 43%
12:00 +25°C° 0 mm 3 m/S 720 mmHg 41%
13:00 +25°C° 0 mm 3 m/S 719 mmHg 38%
14:00 +26°C° 0 mm 4 m/S 719 mmHg 36%
15:00 +25°C° 0 mm 4 m/S 719 mmHg 40%
16:00 +25°C° 0 mm 3 m/S 719 mmHg 44%
17:00 +24°C° 0 mm 3 m/S 719 mmHg 47%
18:00 +21°C° 0 mm 3 m/S 719 mmHg 50%
19:00 +20°C° 0 mm 3 m/S 719 mmHg 53%
20:00 +18°C° 0 mm 3 m/S 719 mmHg 56%
21:00 +17°C° 0 mm 3 m/S 719 mmHg 55%
22:00 +16°C° 0 mm 2 m/S 719 mmHg 55%
23:00 +16°C° 0 mm 2 m/S 719 mmHg 55%

11 Mai, Dienstag

Zeit Temperatur Niederschläge Wind Luftdruck Luftfeuchtigkeit
00:00 +15°C° 0 mm 2 m/S 719 mmHg 56%
01:00 +15°C° 0 mm 2 m/S 719 mmHg 56%
02:00 +14°C° 0 mm 1 m/S 719 mmHg 57%
03:00 +14°C° 0 mm 1 m/S 719 mmHg 58%
04:00 +13°C° 0 mm 1 m/S 719 mmHg 59%
05:00 +13°C° 0 mm 1 m/S 720 mmHg 60%
06:00 +15°C° 0 mm 1 m/S 720 mmHg 56%
07:00 +16°C° 0 mm 0 m/S 720 mmHg 53%
08:00 +18°C° 0 mm 0 m/S 721 mmHg 49%
09:00 +21°C° 0 mm 1 m/S 721 mmHg 45%
10:00 +23°C° 0 mm 2 m/S 721 mmHg 41%
11:00 +24°C° 0 mm 2 m/S 721 mmHg 37%
12:00 +25°C° 0 mm 3 m/S 721 mmHg 35%
13:00 +25°C° 0 mm 3 m/S 721 mmHg 33%
14:00 +26°C° 0 mm 3 m/S 721 mmHg 32%
15:00 +26°C° 0 mm 2 m/S 721 mmHg 32%
16:00 +26°C° 0 mm 2 m/S 721 mmHg 33%
17:00 +25°C° 0 mm 2 m/S 721 mmHg 34%
18:00 +23°C° 0 mm 1 m/S 721 mmHg 40%
19:00 +21°C° 0 mm 1 m/S 721 mmHg 46%
20:00 +19°C° 0 mm 1 m/S 721 mmHg 51%
21:00 +17°C° 0 mm 2 m/S 721 mmHg 53%
22:00 +16°C° 0 mm 2 m/S 721 mmHg 56%
23:00 +14°C° 0 mm 3 m/S 721 mmHg 58%

12 Mai, Mittwoch

Zeit Temperatur Niederschläge Wind Luftdruck Luftfeuchtigkeit
00:00 +14°C° 0 mm 3 m/S 721 mmHg 59%
01:00 +14°C° 0 mm 3 m/S 721 mmHg 60%
02:00 +13°C° 0 mm 3 m/S 721 mmHg 61%
03:00 +14°C° 0 mm 2 m/S 721 mmHg 62%
04:00 +14°C° 0 mm 2 m/S 721 mmHg 63%
05:00 +14°C° 0 mm 2 m/S 721 mmHg 64%
06:00 +16°C° 0 mm 2 m/S 721 mmHg 60%
07:00 +18°C° 0 mm 2 m/S 721 mmHg 57%
08:00 +20°C° 0 mm 2 m/S 722 mmHg 54%
09:00 +21°C° 0 mm 3 m/S 722 mmHg 49%
10:00 +24°C° 0 mm 3 m/S 722 mmHg 44%
11:00 +26°C° 0 mm 4 m/S 722 mmHg 40%
12:00 +26°C° 0 mm 4 m/S 721 mmHg 38%
13:00 +27°C° 0 mm 5 m/S 721 mmHg 37%
14:00 +27°C° 0 mm 5 m/S 721 mmHg 35%
15:00 +27°C° 0 mm 5 m/S 721 mmHg 38%
16:00 +27°C° 0 mm 6 m/S 721 mmHg 40%
17:00 +26°C° 0 mm 6 m/S 720 mmHg 43%
18:00 +23°C° 0 mm 6 m/S 720 mmHg 45%
19:00 +21°C° 0 mm 5 m/S 720 mmHg 47%
20:00 +19°C° 0 mm 4 m/S 720 mmHg 49%
21:00 +18°C° 0 mm 4 m/S 719 mmHg 45%
22:00 +17°C° 0 mm 5 m/S 719 mmHg 41%
23:00 +16°C° 0 mm 5 m/S 719 mmHg 37%

13 Mai, Donnerstag

Zeit Temperatur Niederschläge Wind Luftdruck Luftfeuchtigkeit
00:00 +15°C° 0 mm 4 m/S 719 mmHg 39%
01:00 +14°C° 0 mm 4 m/S 719 mmHg 40%
02:00 +14°C° 0 mm 4 m/S 718 mmHg 42%
03:00 +13°C° 0 mm 3 m/S 718 mmHg 44%
04:00 +13°C° 0 mm 3 m/S 718 mmHg 47%
05:00 +12°C° 0 mm 3 m/S 718 mmHg 49%
06:00 +14°C° 0 mm 3 m/S 719 mmHg 49%
07:00 +17°C° 0 mm 3 m/S 719 mmHg 50%
08:00 +19°C° 0 mm 3 m/S 719 mmHg 50%
09:00 +21°C° 0 mm 3 m/S 719 mmHg 46%
10:00 +24°C° 0 mm 3 m/S 719 mmHg 42%
11:00 +26°C° 0 mm 2 m/S 719 mmHg 38%
12:00 +27°C° 0 mm 3 m/S 719 mmHg 37%
13:00 +27°C° 0 mm 3 m/S 719 mmHg 35%
14:00 +28°C° 0 mm 3 m/S 719 mmHg 33%
15:00 +27°C° 0 mm 4 m/S 719 mmHg 35%
16:00 +27°C° 0 mm 4 m/S 719 mmHg 38%
17:00 +26°C° 0 mm 4 m/S 719 mmHg 40%
18:00 +23°C° 0 mm 4 m/S 719 mmHg 42%
19:00 +20°C° 0 mm 4 m/S 719 mmHg 44%
20:00 +18°C° 0 mm 3 m/S 718 mmHg 46%
21:00 +17°C° 0 mm 3 m/S 718 mmHg 45%
22:00 +16°C° 0 mm 3 m/S 718 mmHg 43%
23:00 +14°C° 0 mm 3 m/S 718 mmHg 42%
Mehr zeigen

Wir brauchen deine Erlaubnis

Meteoprog und unser Service Anbieter werden persönliche Daten aufbewahren, so wie Cookies, Geräte Bezeichnung oder ähnliche Technologien von deinem Gerät und Prozess, so wie Persönliche Daten Inhalte und Werbungen, genauso wie social Media und den Verkehr zu analysieren.

  • Aufbewahrung und/oder Zugang zu deiner Geräte Informationen.

    Cookies, Geräte Bezeichnung oder andere Informationen, können aufbewahrt oder Zugang zu deinem Gerät erhalten, für den Grund, der oben angegeben wird.

  • Personalisierte Werbung und Inhalte, Messungen, Einblick in das Publikum und Produkt Entwicklung.

    Werbungen und Inhalte können personalisiert werden, basierend auf ein Profil. Mehr Daten können besser personalisierte Werbungen und Inhalte hinzufügen. Werbung und Inhalte können gezeigt und gemessen werden. Einblicke über das Publikum, welche die Werbung gesehen haben und den Inhalt, können abgeleitet werden. So wie Daten können genutzt werden, um es zu verbessern oder die Benutzer Erfahrung zu verbessern das System und die Software.

Wenn du “Ich stimme zu” klickst, erlaubst du uns, die Cookies zu benutzen die Geräte Bezeichnung, den Web oder ähnliche Technologien zu benutzen. Deine Settings, können in deinem Gerät bei deinem Browser geändert werden.

Für den bestimmten Zweck, berechtigten Interessen beruhen darauf, mehr als auf den Inhalt. Du kannst mehr darüber in unseren Privaten und Cookie Politik lesen.